Total_Precipitation_Accumulation
0.00 0.00 0.00 0.00 0.00 0.00 0.00 0.00 0.00 0.00 0.00 0.00 0.00 0.00 0.01 0.03 0.09 0.20 0.43 0.67 0.93 1.12 1.19 1.22 1.29 1.42 1.49 1.49 1.52 1.51 1.61 1.76 1.86 1.82 1.77 1.70 1.51 1.30 1.04 0.88 0.88 1.01 1.09 1.26
0.00 0.00 0.00 0.00 0.00 0.00 0.00 0.00 0.00 0.00 0.00 0.00 0.00 0.00 0.02 0.06 0.08 0.12 0.27 0.49 0.73 1.12 1.33 1.46 1.58 1.66 1.60 1.66 1.78 1.94 2.17 2.33 2.14 2.21 2.33 2.19 1.99 1.53 1.29 1.16 1.14 1.19 1.31 1.39
0.00 0.00 0.00 0.00 0.00 0.00 0.00 0.00 0.00 0.00 0.00 0.00 0.00 0.00 0.03 0.10 0.19 0.27 0.39 0.47 0.51 0.78 1.05 1.15 1.26 1.38 1.62 1.90 2.15 2.27 2.42 2.43 2.33 2.43 2.43 2.12 1.97 1.61 1.49 1.48 1.41 1.38 1.50 1.57
0.00 0.00 0.00 0.00 0.00 0.00 0.00 0.00 0.00 0.00 0.00 0.00 0.00 0.01 0.02 0.07 0.18 0.34 0.50 0.59 0.76 0.91 0.94 1.03 1.16 1.40 1.75 2.08 2.41 2.67 2.62 2.56 2.48 2.52 2.46 2.30 2.09 1.85 1.78 1.81 1.62 1.47 1.43 1.46
0.01 0.00 0.00 0.00 0.00 0.00 0.00 0.00 0.00 0.00 0.00 0.00 0.00 0.01 0.03 0.07 0.15 0.31 0.47 0.67 0.90 0.94 0.89 0.99 1.14 1.36 1.58 1.89 2.18 2.42 2.59 2.60 2.50 2.43 2.35 2.30 2.10 1.88 1.76 1.69 1.58 1.53 1.54 1.43
0.03 0.02 0.01 0.01 0.00 0.00 0.00 0.00 0.00 0.00 0.01 0.02 0.03 0.03 0.06 0.14 0.23 0.31 0.47 0.64 0.83 1.04 1.07 1.10 1.29 1.43 1.53 1.72 1.97 2.14 2.26 2.29 2.24 2.14 2.09 2.09 2.02 1.97 1.82 1.66 1.65 1.68 1.61 1.44
0.06 0.05 0.05 0.04 0.02 0.01 0.00 0.01 0.05 0.05 0.08 0.09 0.09 0.08 0.19 0.33 0.40 0.41 0.47 0.68 0.94 1.16 1.19 1.26 1.43 1.55 1.61 1.64 1.69 1.75 1.79 1.83 1.76 1.68 1.62 1.63 1.65 1.67 1.60 1.58 1.62 1.65 1.59 1.49
0.13 0.08 0.08 0.09 0.07 0.05 0.04 0.06 0.17 0.14 0.06 0.06 0.09 0.17 0.35 0.42 0.45 0.47 0.50 0.64 0.91 1.05 1.11 1.21 1.30 1.23 1.17 1.20 1.25 1.28 1.27 1.28 1.24 1.26 1.28 1.30 1.39 1.45 1.44 1.53 1.55 1.59 1.58 1.53
0.06 0.05 0.06 0.09 0.10 0.10 0.14 0.17 0.15 0.23 0.17 0.15 0.12 0.24 0.38 0.44 0.58 0.63 0.68 0.76 0.81 0.81 0.78 0.81 0.83 0.87 0.93 0.96 0.96 0.96 0.98 0.99 0.94 0.93 1.01 1.07 1.12 1.21 1.24 1.33 1.36 1.36 1.35 1.29
0.02 0.02 0.04 0.04 0.06 0.09 0.15 0.25 0.34 0.48 0.47 0.36 0.19 0.31 0.56 0.75 0.84 0.83 0.96 1.16 1.01 0.73 0.61 0.58 0.57 0.62 0.67 0.69 0.74 0.79 0.87 0.96 0.94 0.87 0.86 0.88 0.92 0.96 1.06 1.12 1.15 1.18 1.21 1.18
0.01 0.03 0.04 0.06 0.08 0.13 0.23 0.31 0.41 0.50 0.52 0.49 0.42 0.49 0.49 0.80 0.91 0.93 0.97 0.98 0.81 0.53 0.37 0.33 0.33 0.38 0.46 0.58 0.67 0.69 0.79 0.87 0.83 0.74 0.73 0.77 0.78 0.81 0.86 0.92 0.94 0.99 1.04 1.10
0.02 0.03 0.04 0.05 0.08 0.10 0.19 0.32 0.42 0.51 0.51 0.51 0.53 0.62 0.44 0.61 0.67 0.68 0.71 0.56 0.43 0.31 0.23 0.20 0.21 0.25 0.33 0.42 0.47 0.55 0.64 0.74 0.76 0.71 0.71 0.74 0.77 0.76 0.75 0.77 0.76 0.78 0.81 0.84
0.01 0.02 0.03 0.07 0.15 0.14 0.15 0.18 0.25 0.35 0.42 0.44 0.55 0.70 0.46 0.44 0.50 0.49 0.43 0.36 0.27 0.21 0.17 0.16 0.17 0.21 0.24 0.29 0.36 0.43 0.48 0.56 0.64 0.66 0.70 0.76 0.74 0.72 0.73 0.76 0.76 0.74 0.73 0.73
0.00 0.00 0.02 0.06 0.09 0.09 0.12 0.18 0.23 0.29 0.39 0.37 0.39 0.54 0.52 0.45 0.41 0.36 0.30 0.24 0.21 0.17 0.16 0.14 0.15 0.16 0.16 0.19 0.26 0.31 0.34 0.41 0.48 0.57 0.71 0.82 0.87 0.86 0.86 0.80 0.80 0.78 0.74 0.74
0.00 0.01 0.02 0.02 0.03 0.05 0.09 0.14 0.19 0.26 0.29 0.36 0.33 0.41 0.46 0.39 0.33 0.27 0.23 0.21 0.22 0.20 0.15 0.12 0.11 0.10 0.11 0.13 0.17 0.25 0.32 0.36 0.42 0.56 0.77 0.87 0.84 0.78 0.75 0.73 0.79 0.76 0.68 0.68
0.00 0.01 0.03 0.06 0.08 0.12 0.17 0.21 0.18 0.17 0.15 0.17 0.23 0.33 0.29 0.27 0.26 0.26 0.24 0.21 0.19 0.16 0.13 0.11 0.10 0.08 0.08 0.08 0.09 0.16 0.26 0.32 0.40 0.51 0.62 0.65 0.68 0.69 0.65 0.59 0.57 0.56 0.57 0.57
0.01 0.01 0.03 0.05 0.13 0.17 0.26 0.24 0.26 0.27 0.21 0.22 0.34 0.36 0.26 0.23 0.19 0.16 0.14 0.13 0.13 0.11 0.09 0.08 0.08 0.07 0.06 0.06 0.08 0.14 0.20 0.25 0.35 0.42 0.46 0.52 0.62 0.64 0.56 0.47 0.48 0.52 0.50 0.48
0.01 0.01 0.03 0.06 0.17 0.32 0.26 0.07 0.07 0.11 0.14 0.15 0.20 0.20 0.17 0.15 0.11 0.09 0.07 0.07 0.07 0.06 0.06 0.05 0.05 0.05 0.05 0.06 0.09 0.13 0.18 0.23 0.32 0.42 0.48 0.51 0.60 0.60 0.54 0.51 0.48 0.47 0.44 0.44
0.01 0.00 0.02 0.06 0.12 0.21 0.13 0.05 0.04 0.07 0.09 0.04 0.07 0.08 0.08 0.06 0.07 0.10 0.06 0.03 0.03 0.03 0.04 0.04 0.03 0.05 0.07 0.08 0.10 0.14 0.21 0.25 0.32 0.41 0.50 0.58 0.63 0.60 0.55 0.52 0.48 0.45 0.43 0.39
0.00 0.00 0.01 0.03 0.10 0.16 0.09 0.04 0.05 0.08 0.21 0.11 0.08 0.07 0.06 0.06 0.13 0.16 0.05 0.01 0.01 0.03 0.07 0.08 0.06 0.09 0.14 0.13 0.13 0.18 0.25 0.32 0.42 0.49 0.55 0.60 0.61 0.62 0.59 0.56 0.53 0.48 0.48 0.43
0.00 0.00 0.01 0.03 0.08 0.09 0.03 0.04 0.06 0.16 0.25 0.06 0.02 0.02 0.02 0.06 0.11 0.08 0.02 0.01 0.01 0.03 0.08 0.12 0.15 0.22 0.22 0.18 0.20 0.27 0.32 0.38 0.44 0.52 0.59 0.66 0.70 0.65 0.61 0.61 0.60 0.58 0.55 0.54
0.01 0.01 0.01 0.03 0.10 0.12 0.02 0.02 0.04 0.06 0.03 0.02 0.02 0.02 0.02 0.02 0.02 0.03 0.02 0.02 0.02 0.04 0.07 0.14 0.24 0.29 0.26 0.27 0.36 0.43 0.45 0.45 0.47 0.56 0.64 0.72 0.77 0.63 0.57 0.66 0.67 0.66 0.66 0.66
0.00 0.01 0.01 0.03 0.05 0.02 0.01 0.01 0.02 0.02 0.02 0.02 0.02 0.01 0.02 0.02 0.02 0.03 0.02 0.03 0.07 0.09 0.11 0.13 0.21 0.26 0.28 0.35 0.49 0.63 0.64 0.57 0.57 0.64 0.72 0.74 0.75 0.78 0.78 0.73 0.72 0.72 0.72 0.72
0.00 0.01 0.01 0.03 0.02 0.01 0.01 0.01 0.01 0.01 0.01 0.01 0.01 0.01 0.01 0.02 0.02 0.02 0.02 0.03 0.07 0.10 0.11 0.12 0.17 0.25 0.34 0.42 0.56 0.68 0.70 0.69 0.69 0.72 0.76 0.79 0.81 0.83 0.85 0.87 0.85 0.82 0.78 0.79
0.00 0.00 0.02 0.05 0.03 0.02 0.01 0.01 0.01 0.00 0.01 0.01 0.01 0.01 0.01 0.02 0.03 0.03 0.04 0.04 0.05 0.08 0.09 0.12 0.19 0.29 0.36 0.43 0.53 0.60 0.64 0.73 0.80 0.81 0.83 0.86 0.87 0.89 0.90 0.90 0.89 0.86 0.82 0.76
0.01 0.01 0.03 0.04 0.03 0.03 0.03 0.01 0.00 0.00 0.01 0.01 0.01 0.01 0.02 0.02 0.03 0.04 0.05 0.05 0.06 0.08 0.10 0.15 0.20 0.27 0.32 0.40 0.49 0.56 0.67 0.77 0.88 0.90 0.84 0.82 0.80 0.81 0.84 0.83 0.72 0.60 0.58 0.54